• Em Portugal
  • Lista de países
  • Para 7 dias
  • Temperatura da água
  • Mapas de satélite
  • Mapa do tempo
  • Widgets de tempo
  • user-avatar
    Iniciar Sessão

    Previsão horária em Pabna

    Hoje, 20 Janeiro, Sábado

    Tempo Temperatura Precipitação Vento Pressão Humidade
    00:00 +18°C° 0 mm 2 m/s 759 mmHg 50%
    01:00 +18°C° 0 mm 2 m/s 759 mmHg 51%
    02:00 +17°C° 0 mm 2 m/s 758 mmHg 51%
    03:00 +17°C° 0 mm 2 m/s 758 mmHg 52%
    04:00 +16°C° 0 mm 2 m/s 758 mmHg 53%
    05:00 +16°C° 0 mm 2 m/s 758 mmHg 55%
    06:00 +15°C° 0 mm 1 m/s 758 mmHg 60%
    07:00 +17°C° 0 mm 2 m/s 758 mmHg 57%
    08:00 +18°C° 0 mm 2 m/s 759 mmHg 54%
    09:00 +19°C° 0 mm 3 m/s 759 mmHg 51%
    10:00 +21°C° 0 mm 3 m/s 759 mmHg 46%
    11:00 +22°C° 0 mm 3 m/s 759 mmHg 42%
    12:00 +26°C° 0 mm 2 m/s 759 mmHg 32%
    13:00 +26°C° 0 mm 2 m/s 758 mmHg 31%
    14:00 +27°C° 0 mm 2 m/s 758 mmHg 29%
    15:00 +28°C° 0 mm 2 m/s 757 mmHg 27%
    16:00 +26°C° 0 mm 2 m/s 757 mmHg 30%
    17:00 +24°C° 0 mm 2 m/s 757 mmHg 33%
    18:00 +22°C° 0 mm 1 m/s 756 mmHg 40%
    19:00 +22°C° 0 mm 1 m/s 757 mmHg 41%
    20:00 +21°C° 0 mm 1 m/s 757 mmHg 43%
    21:00 +21°C° 0 mm 1 m/s 758 mmHg 44%
    22:00 +20°C° 0 mm 1 m/s 758 mmHg 46%
    23:00 +20°C° 0 mm 1 m/s 758 mmHg 47%

    Amanhã, 21 Janeiro, Domingo

    Tempo Temperatura Precipitação Vento Pressão Humidade
    00:00 +19°C° 0 mm 1 m/s 758 mmHg 49%
    01:00 +19°C° 0 mm 1 m/s 758 mmHg 50%
    02:00 +18°C° 0 mm 1 m/s 758 mmHg 51%
    03:00 +18°C° 0 mm 1 m/s 758 mmHg 53%
    04:00 +16°C° 0 mm 1 m/s 758 mmHg 54%
    05:00 +16°C° 0 mm 1 m/s 758 mmHg 56%
    06:00 +16°C° 0 mm 1 m/s 758 mmHg 58%
    07:00 +17°C° 0 mm 2 m/s 759 mmHg 54%
    08:00 +19°C° 0 mm 2 m/s 759 mmHg 51%
    09:00 +20°C° 0 mm 2 m/s 760 mmHg 47%
    10:00 +23°C° 0 mm 2 m/s 759 mmHg 42%
    11:00 +25°C° 0 mm 2 m/s 759 mmHg 37%
    12:00 +26°C° 0 mm 2 m/s 759 mmHg 32%
    13:00 +27°C° 0 mm 2 m/s 758 mmHg 30%
    14:00 +28°C° 0 mm 2 m/s 757 mmHg 28%
    15:00 +28°C° 0 mm 3 m/s 756 mmHg 25%
    16:00 +27°C° 0 mm 2 m/s 756 mmHg 28%
    17:00 +25°C° 0 mm 2 m/s 756 mmHg 31%
    18:00 +23°C° 0 mm 2 m/s 756 mmHg 34%
    19:00 +23°C° 0 mm 2 m/s 756 mmHg 36%
    20:00 +21°C° 0 mm 2 m/s 757 mmHg 38%
    21:00 +20°C° 0 mm 2 m/s 757 mmHg 39%
    22:00 +20°C° 0 mm 2 m/s 757 mmHg 41%
    23:00 +19°C° 0 mm 2 m/s 757 mmHg 42%

    Depois de amanhã, 22 Janeiro, Segunda-feira

    Tempo Temperatura Precipitação Vento Pressão Humidade
    00:00 +19°C° 0 mm 2 m/s 757 mmHg 44%
    01:00 +18°C° 0 mm 2 m/s 757 mmHg 46%
    02:00 +18°C° 0 mm 2 m/s 757 mmHg 47%
    03:00 +17°C° 0 mm 2 m/s 757 mmHg 49%
    04:00 +17°C° 0 mm 2 m/s 757 mmHg 50%
    05:00 +16°C° 0 mm 2 m/s 757 mmHg 52%
    06:00 +16°C° 0 mm 2 m/s 757 mmHg 53%
    07:00 +17°C° 0 mm 2 m/s 758 mmHg 49%
    08:00 +19°C° 0 mm 2 m/s 758 mmHg 46%
    09:00 +20°C° 0 mm 2 m/s 759 mmHg 43%
    10:00 +23°C° 0 mm 2 m/s 759 mmHg 38%
    11:00 +25°C° 0 mm 2 m/s 758 mmHg 33%
    12:00 +26°C° 0 mm 2 m/s 758 mmHg 29%
    13:00 +27°C° 0 mm 2 m/s 757 mmHg 26%
    14:00 +28°C° 0 mm 2 m/s 756 mmHg 24%
    15:00 +29°C° 0 mm 3 m/s 755 mmHg 22%
    16:00 +27°C° 0 mm 2 m/s 755 mmHg 25%
    17:00 +25°C° 0 mm 2 m/s 755 mmHg 28%
    18:00 +23°C° 0 mm 1 m/s 755 mmHg 31%
    19:00 +23°C° 0 mm 1 m/s 756 mmHg 32%
    20:00 +22°C° 0 mm 1 m/s 756 mmHg 33%
    21:00 +21°C° 0 mm 1 m/s 757 mmHg 35%
    22:00 +20°C° 0 mm 2 m/s 757 mmHg 35%
    23:00 +19°C° 0 mm 2 m/s 757 mmHg 36%

    23 Janeiro, Terça-feira

    Tempo Temperatura Precipitação Vento Pressão Humidade
    00:00 +19°C° 0 mm 2 m/s 757 mmHg 36%
    01:00 +18°C° 0 mm 2 m/s 757 mmHg 37%
    02:00 +18°C° 0 mm 2 m/s 757 mmHg 39%
    03:00 +17°C° 0 mm 2 m/s 756 mmHg 40%
    04:00 +17°C° 0 mm 2 m/s 757 mmHg 42%
    05:00 +16°C° 0 mm 2 m/s 757 mmHg 44%
    06:00 +16°C° 0 mm 2 m/s 757 mmHg 46%
    07:00 +17°C° 0 mm 2 m/s 758 mmHg 43%
    08:00 +19°C° 0 mm 2 m/s 758 mmHg 41%
    09:00 +20°C° 0 mm 2 m/s 759 mmHg 39%
    10:00 +23°C° 0 mm 2 m/s 758 mmHg 34%
    11:00 +25°C° 0 mm 1 m/s 758 mmHg 29%
    12:00 +27°C° 0 mm 1 m/s 758 mmHg 25%
    13:00 +27°C° 0 mm 2 m/s 757 mmHg 23%
    14:00 +28°C° 0 mm 2 m/s 755 mmHg 21%
    15:00 +29°C° 0 mm 2 m/s 754 mmHg 18%
    16:00 +27°C° 0 mm 2 m/s 754 mmHg 21%
    17:00 +25°C° 0 mm 2 m/s 754 mmHg 24%
    18:00 +24°C° 0 mm 1 m/s 754 mmHg 27%
    19:00 +23°C° 0 mm 1 m/s 755 mmHg 27%
    20:00 +22°C° 0 mm 1 m/s 755 mmHg 28%
    21:00 +22°C° 0 mm 1 m/s 756 mmHg 29%
    22:00 +21°C° 0 mm 1 m/s 756 mmHg 31%
    23:00 +20°C° 0 mm 1 m/s 756 mmHg 32%

    24 Janeiro, Quarta-feira

    Tempo Temperatura Precipitação Vento Pressão Humidade
    00:00 +18°C° 0 mm 0 m/s 755 mmHg 33%
    01:00 +17°C° 0 mm 0 m/s 755 mmHg 34%
    02:00 +17°C° 0 mm 0 m/s 755 mmHg 34%
    03:00 +17°C° 0 mm 0 m/s 755 mmHg 35%
    04:00 +16°C° 0 mm 0 m/s 755 mmHg 36%
    05:00 +16°C° 0 mm 0 m/s 755 mmHg 36%
    06:00 +16°C° 0 mm 0 m/s 755 mmHg 37%
    07:00 +20°C° 0 mm 1 m/s 756 mmHg 34%
    08:00 +22°C° 0 mm 1 m/s 756 mmHg 31%
    09:00 +24°C° 0 mm 1 m/s 757 mmHg 29%
    10:00 +25°C° 0 mm 1 m/s 757 mmHg 26%
    11:00 +27°C° 0 mm 1 m/s 756 mmHg 24%
    12:00 +29°C° 0 mm 1 m/s 756 mmHg 22%
    13:00 +29°C° 0 mm 1 m/s 755 mmHg 22%
    14:00 +30°C° 0 mm 1 m/s 754 mmHg 22%
    15:00 +31°C° 0 mm 1 m/s 753 mmHg 22%
    16:00 +29°C° 0 mm 1 m/s 753 mmHg 25%
    17:00 +28°C° 0 mm 1 m/s 753 mmHg 29%
    18:00 +26°C° 0 mm 1 m/s 753 mmHg 32%
    19:00 +25°C° 0 mm 1 m/s 753 mmHg 32%
    20:00 +25°C° 0 mm 2 m/s 754 mmHg 33%
    21:00 +25°C° 0 mm 3 m/s 754 mmHg 33%
    22:00 +24°C° 0 mm 2 m/s 754 mmHg 34%
    23:00 +24°C° 0 mm 2 m/s 754 mmHg 35%

    25 Janeiro, Quinta-feira

    Tempo Temperatura Precipitação Vento Pressão Humidade
    00:00 +24°C° 0 mm 2 m/s 754 mmHg 36%
    01:00 +23°C° 0 mm 2 m/s 754 mmHg 41%
    02:00 +23°C° 0 mm 2 m/s 754 mmHg 46%
    03:00 +21°C° 0 mm 2 m/s 753 mmHg 51%
    04:00 +21°C° 0 mm 2 m/s 754 mmHg 56%
    05:00 +20°C° 0 mm 2 m/s 754 mmHg 62%
    06:00 +20°C° 0 mm 2 m/s 754 mmHg 67%
    07:00 +21°C° 0 mm 2 m/s 755 mmHg 65%
    08:00 +23°C° 0 mm 2 m/s 756 mmHg 62%
    09:00 +24°C° 0 mm 2 m/s 756 mmHg 60%
    10:00 +26°C° 0 mm 2 m/s 756 mmHg 55%
    11:00 +27°C° 0 mm 2 m/s 756 mmHg 50%
    12:00 +29°C° 0 mm 3 m/s 756 mmHg 45%
    13:00 +29°C° 0 mm 3 m/s 755 mmHg 41%
    14:00 +30°C° 0 mm 3 m/s 754 mmHg 37%
    15:00 +31°C° 0 mm 3 m/s 753 mmHg 33%
    16:00 +29°C° 0 mm 3 m/s 753 mmHg 35%
    17:00 +28°C° 0 mm 3 m/s 753 mmHg 36%
    18:00 +26°C° 0 mm 3 m/s 753 mmHg 37%
    19:00 +25°C° 0 mm 3 m/s 754 mmHg 38%
    20:00 +24°C° 0 mm 3 m/s 754 mmHg 39%
    21:00 +22°C° 0 mm 3 m/s 755 mmHg 40%
    22:00 +21°C° 0 mm 3 m/s 755 mmHg 42%
    23:00 +21°C° 0 mm 3 m/s 755 mmHg 45%
    Mostrar mais